{"data":{"norad_id":69215,"intl_designator":"2026-115E","name":"STARLINK-37700","alt_names":[],"object_type":"PAYLOAD","status":"ACTIVE","operator":null,"country":"US","launch_date":"2026-05-26","launch_site_code":"AFWTR","launch_vehicle":null,"mission":null,"orbit_class":"UNKNOWN","rcs_meters":null,"size_class":null,"mass_kg":null,"dimensions":null,"purposes":["comms"],"wikipedia_slug":null,"has_3d_model":false,"image_url":null,"decayed_at":null,"tle_current":{"epoch":"2026-09-20T02:00:38.246400Z","epoch_age_seconds":62994,"freshness":"FRESH","line1":"1 69215U 26115E   26263.08377600  .00005617  00000+0  17617-3 0  9991","line2":"2 69215  97.2835 279.1320 0001336  97.3745 262.7649 15.33445382 19229","mean_motion":15.33445382,"eccentricity":0.0001336,"inclination_deg":97.2835,"raan_deg":279.132,"arg_perigee_deg":97.3745,"mean_anomaly_deg":262.7649,"bstar":0.00017617,"rev_number":1922,"period_min":93.906181263651,"perigee_km":464.62772239566,"apogee_km":466.45635343459,"semimajor_km":6843.6790379151,"source":"CELESTRAK","updated_at":"2026-09-20T09:00:44.102459Z"}}}